This demonstration page uses our WeatherBlox Daily Observations layout. Learn more.

Left ArrowRight Arrow

39.12711, -84.51439

Hourly Observations for May 21, 2018

Temp ( °F °C ) Dew Point ( °F °C ) Humidity (%) Winds ( mph kmh ) Pressure ( in mb ) Visibility ( mi km ) Precip ( " mm )
12:53 am 00:53 Cloudy 68 20 67 19.4 96 96 Calm 30.09 1019 9 14 0.00 0.00
1:53 am 01:53 Clear 66 18.9 66 18.9 100 100 NE 3 6 30.09 1019 8 13 0.00 0.00
2:53 am 02:53 Clear 66 18.9 66 18.9 100 100 NNE 3 6 30.07 1018 8 13 0.00 0.00
3:53 am 03:53 Clear with Mist and Fog 64 17.8 64 17.8 100 100 NE 3 6 30.08 1019 6 10 0.00 0.00
4:53 am 04:53 Clear 65 18.3 65 18.3 100 100 NE 5 7 30.08 1019 7 11 0.00 0.00
5:53 am 05:53 Clear 65 18.3 65 18.3 100 100 NE 3 6 30.09 1019 8 13 0.00 0.00
6:53 am 06:53 Sunny 66 18.9 65 18.3 96 96 NE 5 7 30.11 1020 10 16 0.00 0.00
7:53 am 07:53 Sunny 66 18.9 64 17.8 93 93 NE 6 9 30.13 1020 10 16 0.00 0.00
8:53 am 08:53 Sunny 69 20.6 66 18.9 90 90 NE 8 13 30.13 1020 10 16 0.00 0.00
9:53 am 09:53 Sunny 72 22.2 66 18.9 82 82 NNE 6 9 30.14 1021 10 16 0.00 0.00
10:53 am 10:53 Mostly Sunny 75 23.9 68 20 79 79 NNE 5 7 30.13 1020 10 16 0.00 0.00
11:53 am 11:53 Sunny 79 26.1 70 21.1 74 74 NE 3 6 30.11 1020 10 16 0.00 0.00
12:53 pm 12:53 Mostly Sunny 82 27.8 70 21.1 67 67 S 3 6 30.10 1019 10 16 0.00 0.00
1:53 pm 13:53 Mostly Sunny 84 28.9 69 20.6 61 61 VRB 5 7 30.07 1018 10 16 0.00 0.00
2:53 pm 14:53 Mostly Sunny 86 30 67 19.4 53 53 S 5 7 30.04 1017 10 16 0.00 0.00
3:53 pm 15:53 Partly Cloudy 87 30.6 66 18.9 50 50 SW 10 17 30.02 1017 10 16 0.00 0.00
4:53 pm 16:53 Partly Cloudy 86 30 67 19.4 53 53 S 8 13 29.98 1015 10 16 0.00 0.00
5:53 pm 17:53 Mostly Sunny 86 30 67 19.4 53 53 S 8 13 29.98 1015 10 16 0.00 0.00
6:53 pm 18:53 Sunny 83 28.3 68 20 61 61 S 5 7 29.98 1015 10 16 0.00 0.00
7:53 pm 19:53 Sunny 80 26.7 71 21.7 74 74 Calm 29.99 1016 10 16 0.00 0.00
8:53 pm 20:53 Partly Cloudy 77 25 67 19.4 71 71 N 16 26 30.00 1016 10 16 0.00 0.00
9:00 pm 21:00 Windy with Storms Likely 77 25 66 18.9 69 69 NW 20 31 30.00 1016 7 11 0.00 0.03
9:28 pm 21:28 Cloudy with Strong Thunderstorms 69 20.6 68 20 96 96 WSW 14 22 30.06 1018 2 3 0.28 7.11
9:49 pm 21:49 Cloudy with Thunderstorms 68 20 68 20 100 100 N 10 17 30.03 1017 2 2 0.84 21.34
9:53 pm 21:53 Cloudy with Thunderstorms 69 20.6 69 20.6 100 100 N 8 13 30.04 1017 5 8 0.85 21.59
10:03 pm 22:03 Cloudy with Heavy Rain 69 20.6 68 20 96 96 N 6 9 30.03 1017 4 6 0.04 1.02
10:22 pm 22:22 Cloudy with Thunderstorms 69 20.6 68 20 96 96 SSE 10 17 30.06 1018 4 6 0.11 2.79
10:31 pm 22:31 Cloudy with Thunderstorms 69 20.6 68 20 96 96 SSE 9 15 30.06 1018 4 6 0.14 3.56
10:51 pm 22:51 Cloudy with Thunderstorms 70 21 68 20 94 94 E 5 7 30.03 1017 7 11 0.16 4.06
10:53 pm 22:53 Cloudy with Light Rain 69 20.6 68 20 96 96 E 6 9 30.06 1018 6 10 0.17 4.32
11:53 pm 23:53 Mostly Cloudy 68 20 68 20 100 100 Calm 30.05 1018 10 16 0.00 0.03

Powered by AerisWeather